Hourly Data Report for October 22, 2015

All times are specified in Local Standard Time (LST). Add 1 hour to adjust for Daylight Saving Time where and when it is observed.

QIKIQTARJUAQ A
NUNAVUT

67°32'48.000" N
64°01'54.000" W
5.50 m
2400577
YVM

Download Data

Hourly Data (October 2015)
Hourly Data Report for October 22, 2015
Temp Definition
°C
Dew Point Temp Definition
°C
Rel Hum Definition
%
Wind Dir Definition
10's deg

Wind Spd Definition
km/h
Visibility Definition
km
Stn Press Definition
kPa
Hmdx Definition


Wind Chill Definition


Weather Definition


TIME
00:00 Legend Double Dagger -5.9 -12.0 62 19 13 16.1 100.59   -11 LegendNANA
01:00 Legend Double Dagger -7.0 -13.0 63 20 8 16.1 100.58   -11 LegendNANA
02:00 Legend Double Dagger -7.2 -12.8 65 LegendMM 4 16.1 100.57   -9 LegendNANA
03:00 Legend Double Dagger -6.6 -12.1 65 19 17 16.1 100.57   -13 LegendNANA
04:00 Legend Double Dagger -6.2 -13.2 58 20 15 16.1 100.58   -12 LegendNANA
05:00 Legend Double Dagger -8.9 -14.3 65 15 9 16.1 100.57   -14 LegendNANA
06:00 Legend Double Dagger -9.4 -15.2 63 LegendMM 4 16.1 100.58   -12 LegendNANA
07:00 Legend Double Dagger -9.5 -15.4 63 12 5 16.1 100.58   -12 LegendNANA
08:00 Legend Double Dagger -9.5 -15.1 64 14 9 16.1 100.58   -14 LegendNANA
09:00 Legend Double Dagger -8.6 -14.7 62 12 5 16.1 100.60   -11 LegendNANA
10:00 Legend Double Dagger -7.4 -14.5 57 17 5 16.1 100.56   -10 LegendNANA
11:00 Legend Double Dagger -7.8 -13.5 64 LegendMM 4 16.1 100.58   -10 LegendNANA
12:00 Legend Double Dagger -8.2 -14.5 61 6 5 16.1 100.61   -11 LegendNANA
13:00 Legend Double Dagger -8.2 -14.2 62 14 5 16.1 100.64   -11 LegendNANA
14:00 Legend Double Dagger -8.8 -14.3 65 14 5 16.1 100.70   -12 LegendNANA
15:00 Legend Double Dagger -7.6 -13.9 61 LegendMM 4 16.1 100.74   -10 LegendNANA
16:00 Legend Double Dagger -6.8 -13.8 58 18 8 12.9 100.79   -11 LegendNANA
17:00 Legend Double Dagger -7.1 -13.8 59 12 8 16.1 100.80   -11 LegendNANA
18:00 Legend Double Dagger -6.7 -13.9 57   0 16.1 100.83     LegendNANA
19:00 Legend Double Dagger -8.2 -14.4 61 15 8 16.1 100.85   -12 LegendNANA
20:00 Legend Double Dagger -8.5 -13.7 67 19 15 16.1 100.86   -15 LegendNANA
21:00 Legend Double Dagger -7.2 -13.1 63 18 9 16.1 100.88   -12 LegendNANA
22:00 Legend Double Dagger -8.5 -13.5 67 20 9 16.1 100.89   -13 LegendNANA
23:00 Legend Double Dagger -8.8 -13.7 68 LegendMM 4 16.1 100.91   -11 LegendNANA

Notes on Data Quality.

Legend

  • E = Estimated
  • M = Missing
  • NA = Not Available
  • ‡ = Partner data that is not subject to review by the National Climate Archives
Date modified: